{"data":{"norad_id":53906,"intl_designator":"2022-119W","name":"STARLINK-5054","alt_names":[],"object_type":"PAYLOAD","status":"ACTIVE","operator":null,"country":"US","launch_date":"2022-09-24","launch_site_code":"AFETR","launch_vehicle":null,"mission":null,"orbit_class":"UNKNOWN","rcs_meters":null,"size_class":null,"mass_kg":null,"dimensions":null,"purposes":["comms"],"wikipedia_slug":null,"has_3d_model":false,"image_url":null,"decayed_at":null,"tle_current":{"epoch":"2026-05-24T23:06:39.312000Z","epoch_age_seconds":74945,"freshness":"FRESH","line1":"1 53906U 22119W   26144.96295500  .00000373  00000+0  41541-4 0  9992","line2":"2 53906  53.2134 331.4336 0001407  68.8359 291.2783 15.08839917203342","mean_motion":15.08839917,"eccentricity":0.0001407,"inclination_deg":53.2134,"raan_deg":331.4336,"arg_perigee_deg":68.8359,"mean_anomaly_deg":291.2783,"bstar":4.1541e-5,"rev_number":20334,"period_min":95.437559927704,"perigee_km":538.77029685549,"apogee_km":540.71698846833,"semimajor_km":6917.8806426619,"source":"CELESTRAK","updated_at":"2026-05-25T13:38:17.585661Z"}}}